^^

..:: Storico WU ::..




Lo storico viene creato da WUnderground con i dati che la stazione Meteomincio invia al loro server. L' aggiornamento viene fatto ogni 5 minuti circa, tuttavia possono esserci intervalli pi¨ ampi a causa di errori, interruzioni di servizio o problemi nell' invio tramite FTP.


Storico stazione MeteoMincio
Giorno Sommario per Gennaio 26, 2022 Unità:  Inglese    Metrico   Entrambi
Giorno Settimana Mese Anno
  Max: Min: Media:
Temperatura: 39.6 °F 33.8 °F 36.9 °F
Dew Point: 38.5 °F 32.7 °F 36 °F
Umidità: 98% 93% 96%
Velocità vento: 7.3mph 0mph 2.6mph
Raffica: 12mph - -
Direzione- - West
Pressione: 30.4 in 30.3 in -
Precipitazioni: 0 in    
 
 
Tabulato Dati per Gennaio 26, 2022
Ora Temperatura Dew Point Pressione Direzione Velocità vento Raffica Umidità Intensità pioggia (oraria) Info solare Situazione
00:04 35.1 °F 33.3 °F 30.4 in West 6.5 mph 9.2 mph 93% 0 in 0 W/m2
00:09 35.1 °F 33.3 °F 30.4 in West 6 mph 9.2 mph 93% 0 in 0 W/m2
00:14 34.9 °F 33.1 °F 30.4 in West 5.9 mph 12 mph 93.2% 0 in 0 W/m2
00:19 34.7 °F 33.3 °F 30.4 in West 6.6 mph 12 mph 94% 0 in 0 W/m2
00:24 34.5 °F 33.1 °F 30.4 in West 6.6 mph 12 mph 94% 0 in 0 W/m2
00:29 34.3 °F 32.7 °F 30.4 in West 6.3 mph 11 mph 94% 0 in 0 W/m2
00:34 34.2 °F 32.7 °F 30.4 in West 7.3 mph 12 mph 94% 0 in 0 W/m2
00:39 34.2 °F 32.7 °F 30.4 in West 5.2 mph 12 mph 94.8% 0 in 0 W/m2
00:44 34 °F 32.7 °F 30.4 in West 5.6 mph 10.4 mph 95% 0 in 0 W/m2
00:49 34 °F 32.7 °F 30.4 in West 5.8 mph 10 mph 95% 0 in 0 W/m2
00:54 34 °F 32.7 °F 30.4 in West 5.3 mph 9.2 mph 95.3% 0 in 0 W/m2
00:59 34 °F 33.1 °F 30.4 in WSW 5.7 mph 9.2 mph 96% 0 in 0 W/m2
01:04 34 °F 32.9 °F 30.4 in West 6.2 mph 9.2 mph 96% 0 in 0 W/m2
01:09 34 °F 33.1 °F 30.4 in West 5.8 mph 9 mph 96% 0 in 0 W/m2
01:14 34 °F 33.1 °F 30.4 in West 4.8 mph 8 mph 96% 0 in 0 W/m2
01:19 34 °F 33.1 °F 30.4 in West 5.9 mph 10.4 mph 96% 0 in 0 W/m2
01:24 34.2 °F 33.1 °F 30.4 in West 4.7 mph 10 mph 96% 0 in 0 W/m2
01:29 34.2 °F 33.1 °F 30.4 in West 4.8 mph 8.1 mph 96% 0 in 0 W/m2
01:34 34.2 °F 33.3 °F 30.4 in West 4.6 mph 7 mph 96% 0 in 0 W/m2
01:39 34.2 °F 33.3 °F 30.4 in West 4.3 mph 7 mph 96% 0 in 0 W/m2
01:44 34.3 °F 33.3 °F 30.4 in West 3.6 mph 8 mph 96% 0 in 0 W/m2
01:49 34.3 °F 33.3 °F 30.4 in West 5.9 mph 10.4 mph 96% 0 in 0 W/m2
01:54 34.3 °F 33.4 °F 30.4 in West 5.8 mph 10 mph 96% 0 in 0 W/m2
01:59 34.3 °F 33.4 °F 30.4 in West 5.1 mph 8.1 mph 96% 0 in 0 W/m2
02:04 34.3 °F 33.4 °F 30.4 in West 6.3 mph 9.2 mph 96% 0 in 0 W/m2
02:09 34.3 °F 33.4 °F 30.4 in West 6.1 mph 9 mph 96% 0 in 0 W/m2
02:14 34.3 °F 33.4 °F 30.4 in West 6.7 mph 9.2 mph 96% 0 in 0 W/m2
02:19 34.3 °F 33.4 °F 30.4 in West 5.9 mph 9.2 mph 96% 0 in 0 W/m2
02:24 34.5 °F 33.4 °F 30.4 in West 5.8 mph 9.2 mph 96% 0 in 0 W/m2
02:29 34.5 °F 33.4 °F 30.4 in West 5.5 mph 9.2 mph 96% 0 in 0 W/m2
02:34 34.5 °F 33.6 °F 30.4 in West 5.8 mph 9.2 mph 96% 0 in 0 W/m2
02:39 34.5 °F 33.6 °F 30.4 in West 5.5 mph 9.2 mph 96% 0 in 0 W/m2
02:44 34.5 °F 33.6 °F 30.4 in West 5.7 mph 9.2 mph 96% 0 in 0 W/m2
02:49 34.7 °F 33.6 °F 30.4 in West 5.5 mph 10 mph 96% 0 in 0 W/m2
02:54 34.5 °F 33.6 °F 30.4 in WNW 6.3 mph 10 mph 96% 0 in 0 W/m2
02:59 34.5 °F 33.4 °F 30.4 in West 6.3 mph 11.5 mph 96% 0 in 0 W/m2
03:04 34.5 °F 33.6 °F 30.4 in West 4.2 mph 12 mph 96% 0 in 0 W/m2
03:09 34.7 °F 33.6 °F 30.4 in West 3.7 mph 7 mph 96% 0 in 0 W/m2
03:14 34.7 °F 33.6 °F 30.4 in West 3.9 mph 8 mph 96% 0 in 0 W/m2
03:19 34.7 °F 33.6 °F 30.4 in West 4.5 mph 8.1 mph 96% 0 in 0 W/m2
03:24 34.5 °F 33.3 °F 30.4 in SW 4.2 mph 8 mph 95.2% 0 in 0 W/m2
03:29 34.2 °F 33.1 °F 30.4 in WSW 4 mph 7 mph 95.8% 0 in 0 W/m2
03:34 34 °F 32.9 °F 30.4 in SW 3.7 mph 7 mph 96% 0 in 0 W/m2
03:39 33.8 °F 32.9 °F 30.4 in SW 2.9 mph 7 mph 96% 0 in 0 W/m2
03:44 33.8 °F 32.9 °F 30.4 in SW 3.3 mph 5 mph 96.5% 0 in 0 W/m2
03:49 33.8 °F 33.1 °F 30.4 in SW 4.1 mph 6 mph 96.6% 0 in 0 W/m2
03:54 33.8 °F 33.1 °F 30.4 in SW 3.7 mph 6 mph 97% 0 in 0 W/m2
03:59 34 °F 33.1 °F 30.4 in WSW 3.9 mph 6 mph 97% 0 in 0 W/m2
04:04 34 °F 33.3 °F 30.4 in WSW 2.8 mph 6 mph 97% 0 in 0 W/m2
04:09 34.2 °F 33.3 °F 30.4 in WSW 2.7 mph 6 mph 97% 0 in 0 W/m2
04:14 34.2 °F 33.4 °F 30.4 in WSW 3.2 mph 5 mph 97% 0 in 0 W/m2
04:19 34.2 °F 33.4 °F 30.4 in SW 3.4 mph 6 mph 97% 0 in 0 W/m2
04:24 34.2 °F 33.4 °F 30.4 in WSW 3.7 mph 6 mph 97% 0 in 0 W/m2
04:29 34.3 °F 33.4 °F 30.4 in WSW 3.4 mph 6 mph 97% 0 in 0 W/m2
04:34 34.3 °F 33.6 °F 30.4 in WSW 4 mph 6 mph 97% 0 in 0 W/m2
04:39 34.3 °F 33.6 °F 30.4 in SW 3.9 mph 6 mph 97% 0 in 0 W/m2
04:44 34.3 °F 33.6 °F 30.4 in WSW 3.4 mph 6 mph 97% 0 in 0 W/m2
04:49 34.5 °F 33.6 °F 30.4 in WSW 3.5 mph 6 mph 97% 0 in 0 W/m2
04:54 34.5 °F 33.6 °F 30.4 in West 3.3 mph 6 mph 97% 0 in 0 W/m2
04:59 34.5 °F 33.8 °F 30.4 in West 3.4 mph 6 mph 97% 0 in 0 W/m2
05:04 34.5 °F 33.8 °F 30.4 in West 4.3 mph 7 mph 97% 0 in 0 W/m2
05:09 34.7 °F 33.8 °F 30.4 in WSW 3.8 mph 7 mph 97% 0 in 0 W/m2
05:14 34.7 °F 34 °F 30.4 in West 3.4 mph 6 mph 97% 0 in 0 W/m2
05:19 34.7 °F 34 °F 30.4 in West 3 mph 6 mph 97% 0 in 0 W/m2
05:24 34.9 °F 34 °F 30.4 in West 3.4 mph 6 mph 96.5% 0 in 0 W/m2
05:29 34.9 °F 33.8 °F 30.4 in West 3.4 mph 6 mph 96% 0 in 0 W/m2
05:34 34.9 °F 33.8 °F 30.4 in West 3.2 mph 6 mph 96% 0 in 0 W/m2
05:39 34.9 °F 34 °F 30.4 in West 3 mph 5 mph 96% 0 in 0 W/m2
05:44 34.9 °F 34 °F 30.4 in West 2.3 mph 5 mph 96% 0 in 0 W/m2
05:49 34.9 °F 34 °F 30.4 in West 2.5 mph 4 mph 96% 0 in 0 W/m2
05:54 34.9 °F 34 °F 30.4 in West 2.9 mph 4 mph 96% 0 in 0 W/m2
05:59 34.9 °F 34 °F 30.4 in West 2.1 mph 5 mph 96% 0 in 0 W/m2
06:04 34.9 °F 34 °F 30.4 in WSW 3.4 mph 5 mph 96% 0 in 0 W/m2
06:09 34.9 °F 34 °F 30.4 in West 2.9 mph 5 mph 96% 0 in 0 W/m2
06:14 35.1 °F 34 °F 30.4 in West 2.9 mph 5 mph 96% 0 in 0 W/m2
06:19 35.1 °F 34 °F 30.4 in West 1.5 mph 5 mph 96% 0 in 0 W/m2
06:24 35.1 °F 34 °F 30.4 in West 1.6 mph 3.5 mph 96% 0 in 0 W/m2
06:29 35.1 °F 34.2 °F 30.4 in WNW 1.2 mph 3.5 mph 96% 0 in 0 W/m2
06:34 35.1 °F 34.2 °F 30.4 in WNW 1.1 mph 3 mph 96% 0 in 0 W/m2
06:39 35.1 °F 34 °F 30.4 in NW 1.6 mph 3.5 mph 95.9% 0 in 0 W/m2
06:44 35.1 °F 33.8 °F 30.4 in NW 1.3 mph 3.5 mph 95.3% 0 in 0 W/m2
06:49 35.1 °F 34 °F 30.4 in WNW 1.8 mph 3.5 mph 95.9% 0 in 0 W/m2
06:54 35.1 °F 34 °F 30.4 in West 1.4 mph 3.5 mph 96% 0 in 0 W/m2
06:59 35.1 °F 33.8 °F 30.4 in West 1.7 mph 3.5 mph 95.3% 0 in 0 W/m2
07:04 35.1 °F 34.2 °F 30.4 in WNW 2.9 mph 5 mph 96% 0 in 0 W/m2
07:09 35.1 °F 34 °F 30.4 in WNW 2.1 mph 5 mph 95.5% 0 in 0 W/m2
07:14 35.2 °F 34.2 °F 30.4 in WNW 1.9 mph 5 mph 96% 0 in 0 W/m2
07:19 35.2 °F 34.2 °F 30.4 in NW 1.4 mph 4 mph 96% 0 in 0 W/m2
07:24 35.2 °F 34.2 °F 30.4 in West 1.4 mph 3.5 mph 96% 0 in 0 W/m2
07:29 35.2 °F 34.2 °F 30.4 in West 1.2 mph 3.5 mph 96% 0 in 0 W/m2
07:34 35.2 °F 34.3 °F 30.4 in West 1.2 mph 3.5 mph 96% 0 in 0 W/m2
07:39 35.2 °F 34.2 °F 30.4 in West 1.7 mph 3.5 mph 95.9% 0 in 0 W/m2
07:44 35.2 °F 34.3 °F 30.4 in West 1.1 mph 3 mph 96% 0 in 0 W/m2
07:49 35.2 °F 34.3 °F 30.4 in West 1.7 mph 3.5 mph 96% 0 in 0 W/m2
07:54 35.2 °F 34.3 °F 30.4 in West 0.5 mph 3 mph 96% 0 in 0 W/m2
07:59 35.2 °F 34.3 °F 30.4 in West 0.2 mph 2 mph 96% 0 in 0 W/m2
08:04 35.2 °F 34.3 °F 30.4 in West 0.4 mph 2 mph 96% 0 in 0 W/m2
08:09 35.4 °F 34.2 °F 30.4 in WNW 1.6 mph 3.5 mph 95.5% 0 in 0 W/m2
08:14 35.2 °F 34 °F 30.4 in WNW 1.5 mph 3.5 mph 95.1% 0 in 5 W/m2
08:19 35.2 °F 34 °F 30.4 in WNW 1.1 mph 3 mph 95% 0 in 7 W/m2
08:24 35.2 °F 34.2 °F 30.4 in West 1.4 mph 2.3 mph 95.5% 0 in 7 W/m2
08:29 35.4 °F 34.3 °F 30.4 in West 1 mph 2.3 mph 96% 0 in 9 W/m2
08:34 35.4 °F 34.3 °F 30.4 in West 0.9 mph 2.3 mph 96% 0 in 9 W/m2
08:39 35.4 °F 34.3 °F 30.4 in West 1.3 mph 3.5 mph 96% 0 in 11 W/m2
08:44 35.4 °F 34.3 °F 30.4 in West 0.9 mph 3 mph 96% 0 in 12 W/m2
08:49 35.4 °F 34.3 °F 30.4 in WSW 1.3 mph 3.5 mph 96% 0 in 14 W/m2
08:54 35.4 °F 34.3 °F 30.4 in WSW 0.4 mph 3 mph 96% 0 in 18 W/m2
08:59 35.4 °F 34.3 °F 30.4 in WSW 1.1 mph 2.3 mph 96% 0 in 18 W/m2
09:04 35.4 °F 34.5 °F 30.4 in West 1.4 mph 3.5 mph 96.3% 0 in 16 W/m2
09:09 35.4 °F 34.7 °F 30.4 in West 1.5 mph 3 mph 97% 0 in 21 W/m2
09:14 35.4 °F 34.7 °F 30.4 in West 1.7 mph 3.5 mph 97% 0 in 23 W/m2
09:19 35.4 °F 34.7 °F 30.4 in West 1.7 mph 3.5 mph 97% 0 in 26 W/m2
09:24 35.6 °F 34.9 °F 30.4 in West 1.7 mph 3.5 mph 97% 0 in 30 W/m2
09:29 35.6 °F 34.9 °F 30.4 in West 2 mph 4 mph 97% 0 in 35 W/m2
09:34 35.6 °F 34.9 °F 30.4 in West 2.8 mph 4 mph 97% 0 in 33 W/m2
09:39 35.8 °F 34.9 °F 30.4 in West 2.2 mph 4 mph 97% 0 in 33 W/m2
09:44 35.8 °F 35.2 °F 30.4 in West 1.3 mph 3.5 mph 97.6% 0 in 28 W/m2
09:49 35.8 °F 35.2 °F 30.4 in West 2 mph 3.5 mph 97.8% 0 in 33 W/m2
09:54 35.8 °F 35.2 °F 30.4 in WSW 2.5 mph 4 mph 98% 0 in 42 W/m2
09:59 36 °F 35.4 °F 30.4 in West 2.7 mph 4 mph 98% 0 in 42 W/m2
10:04 36 °F 35.4 °F 30.4 in WSW 2.4 mph 5 mph 98% 0 in 39 W/m2
10:09 36 °F 35.4 °F 30.4 in West 2.9 mph 5 mph 98% 0 in 39 W/m2
10:14 35.8 °F 35.4 °F 30.4 in WSW 2.1 mph 4 mph 98% 0 in 37 W/m2
10:19 36 °F 35.4 °F 30.4 in WSW 2.2 mph 4 mph 98% 0 in 35 W/m2
10:24 36 °F 35.4 °F 30.4 in WSW 2.2 mph 4 mph 98% 0 in 44 W/m2
10:29 36 °F 35.6 °F 30.4 in WSW 2.2 mph 4 mph 98% 0 in 46 W/m2
10:34 36.1 °F 35.6 °F 30.4 in West 2.4 mph 4 mph 98% 0 in 47 W/m2
10:39 36.1 °F 35.6 °F 30.4 in West 2.6 mph 4 mph 98% 0 in 49 W/m2
10:44 36.1 °F 35.6 °F 30.4 in West 2.7 mph 5 mph 98% 0 in 53 W/m2
10:49 36.1 °F 35.6 °F 30.4 in West 1.8 mph 5 mph 98% 0 in 53 W/m2
10:54 36.3 °F 35.8 °F 30.4 in West 1.2 mph 3 mph 98% 0 in 49 W/m2
10:59 36.3 °F 36 °F 30.4 in WNW 1.9 mph 3.5 mph 98% 0 in 47 W/m2
11:04 36.3 °F 36 °F 30.4 in West 1.6 mph 4 mph 98% 0 in 49 W/m2
11:09 36.5 °F 35.8 °F 30.4 in West 1.7 mph 4 mph 97.2% 0 in 56 W/m2
11:14 36.5 °F 35.8 °F 30.4 in WNW 2.2 mph 4 mph 97% 0 in 62 W/m2
11:19 36.7 °F 36 °F 30.4 in West 2.5 mph 5 mph 97.2% 0 in 62 W/m2
11:24 36.7 °F 36 °F 30.4 in West 3.1 mph 5 mph 97% 0 in 63 W/m2
11:29 36.7 °F 36 °F 30.4 in WSW 2.6 mph 5 mph 97% 0 in 65 W/m2
11:34 36.7 °F 36 °F 30.4 in WSW 2.5 mph 4 mph 97% 0 in 81 W/m2
11:39 36.7 °F 36 °F 30.4 in West 2.4 mph 4 mph 97% 0 in 74 W/m2
11:44 36.9 °F 36 °F 30.4 in West 3.2 mph 5 mph 97% 0 in 81 W/m2
11:49 36.9 °F 36.1 °F 30.4 in West 3.7 mph 5 mph 97% 0 in 84 W/m2
11:54 36.9 °F 36.1 °F 30.4 in West 3.3 mph 5 mph 97% 0 in 70 W/m2
11:59 37 °F 36.3 °F 30.4 in West 2.8 mph 5 mph 97% 0 in 69 W/m2
12:04 37.2 °F 36.3 °F 30.4 in West 3.3 mph 5 mph 97% 0 in 70 W/m2
12:09 37.2 °F 36.3 °F 30.4 in West 3.1 mph 5 mph 96.8% 0 in 67 W/m2
12:14 37.2 °F 36.3 °F 30.4 in West 2.1 mph 5 mph 96.8% 0 in 69 W/m2
12:19 37.2 °F 36.3 °F 30.4 in WSW 2.9 mph 5 mph 97% 0 in 69 W/m2
12:24 37.2 °F 36.3 °F 30.4 in West 3.2 mph 5 mph 96.4% 0 in 88 W/m2
12:29 37.2 °F 36.3 °F 30.4 in WSW 3.4 mph 5 mph 96% 0 in 84 W/m2
12:34 37.4 °F 36.5 °F 30.4 in WSW 2.9 mph 5 mph 96.3% 0 in 98 W/m2
12:39 37.4 °F 36.5 °F 30.4 in West 3.3 mph 5 mph 96.4% 0 in 98 W/m2
12:44 37.6 °F 36.5 °F 30.4 in West 3.7 mph 5 mph 96% 0 in 113 W/m2
12:49 37.8 °F 36.7 °F 30.4 in West 2.1 mph 5 mph 96% 0 in 113 W/m2
12:54 37.8 °F 36.9 °F 30.4 in West 1.9 mph 5 mph 96% 0 in 95 W/m2
12:59 37.9 °F 36.7 °F 30.4 in West 2.4 mph 5 mph 95.3% 0 in 88 W/m2
13:04 37.9 °F 36.7 °F 30.4 in West 2.2 mph 5 mph 95.2% 0 in 100 W/m2
13:09 37.9 °F 36.7 °F 30.4 in West 2.2 mph 4 mph 95% 0 in 97 W/m2
13:14 38.1 °F 36.9 °F 30.4 in SW 2.1 mph 5 mph 95.2% 0 in 100 W/m2
13:19 38.1 °F 36.9 °F 30.4 in WSW 2.4 mph 5 mph 95% 0 in 98 W/m2
13:24 38.3 °F 36.9 °F 30.4 in West 2.9 mph 5 mph 95% 0 in 107 W/m2
13:29 38.3 °F 37 °F 30.4 in West 3.4 mph 6 mph 95% 0 in 88 W/m2
13:34 38.5 °F 37.2 °F 30.4 in WNW 2.8 mph 6 mph 95% 0 in 77 W/m2
13:39 38.7 °F 37.2 °F 30.4 in West 2.9 mph 5 mph 94.7% 0 in 77 W/m2
13:44 38.7 °F 37.2 °F 30.4 in West 3.7 mph 7 mph 94.7% 0 in 79 W/m2
13:49 38.7 °F 37.2 °F 30.4 in West 3.2 mph 7 mph 94.3% 0 in 79 W/m2
13:54 38.8 °F 37.2 °F 30.4 in WSW 3.9 mph 7 mph 94% 0 in 77 W/m2
13:59 38.8 °F 37.2 °F 30.4 in West 4.1 mph 7 mph 94% 0 in 76 W/m2
14:04 38.8 °F 37.2 °F 30.3 in West 3.3 mph 5.8 mph 94% 0 in 76 W/m2
14:09 39 °F 37.4 °F 30.3 in WNW 2.9 mph 6 mph 94% 0 in 74 W/m2
14:14 39 °F 37.4 °F 30.3 in West 3 mph 5 mph 94% 0 in 69 W/m2
14:19 38.8 °F 37.4 °F 30.3 in WNW 3.4 mph 6 mph 94% 0 in 56 W/m2
14:24 39 °F 37.4 °F 30.3 in West 3.5 mph 6 mph 94% 0 in 60 W/m2
14:29 39 °F 37.4 °F 30.3 in WNW 3.8 mph 7 mph 94% 0 in 58 W/m2
14:34 39 °F 37.4 °F 30.3 in WNW 3.3 mph 7 mph 94% 0 in 58 W/m2
14:39 39 °F 37.4 °F 30.3 in WNW 3.1 mph 6 mph 94% 0 in 58 W/m2
14:44 39 °F 37.6 °F 30.3 in WNW 3 mph 6 mph 94% 0 in 54 W/m2
14:49 39 °F 37.6 °F 30.4 in WNW 2.9 mph 5 mph 94% 0 in 53 W/m2
14:54 39.2 °F 37.6 °F 30.3 in WNW 3 mph 5 mph 94.2% 0 in 54 W/m2
14:59 39 °F 37.8 °F 30.4 in WNW 1.1 mph 5 mph 94.9% 0 in 51 W/m2
15:04 39.2 °F 37.8 °F 30.4 in WNW 2.1 mph 4 mph 95% 0 in 46 W/m2
15:09 39.2 °F 37.8 °F 30.4 in WNW 2.6 mph 4 mph 95% 0 in 49 W/m2
15:14 39.2 °F 37.9 °F 30.4 in West 1.6 mph 4 mph 95% 0 in 44 W/m2
15:19 39.2 °F 37.9 °F 30.4 in West 2 mph 4 mph 95% 0 in 46 W/m2
15:24 39.2 °F 37.9 °F 30.4 in West 1.9 mph 4 mph 95% 0 in 44 W/m2
15:29 39.2 °F 37.9 °F 30.3 in WNW 1.4 mph 4 mph 95% 0 in 44 W/m2
15:34 39.2 °F 37.9 °F 30.3 in WNW 0.5 mph 3 mph 95% 0 in 35 W/m2
15:39 39.2 °F 38.1 °F 30.3 in WNW 0.5 mph 2.3 mph 95.7% 0 in 35 W/m2
15:44 39.2 °F 38.1 °F 30.3 in West 0.3 mph 2.3 mph 95.8% 0 in 35 W/m2
15:49 39.2 °F 38.1 °F 30.3 in Calm   2 mph 95.6% 0 in 26 W/m2
15:54 39.2 °F 38.1 °F 30.3 in Calm     96% 0 in 26 W/m2
15:59 39.2 °F 38.1 °F 30.3 in WNW 1.4 mph 4 mph 96% 0 in 25 W/m2
16:04 39.2 °F 38.1 °F 30.4 in WNW 2.4 mph 5 mph 96% 0 in 30 W/m2
16:09 39.4 °F 38.3 °F 30.4 in West 1.2 mph 5 mph 96% 0 in 23 W/m2
16:14 39.4 °F 38.5 °F 30.4 in NW 1.1 mph 2.3 mph 96% 0 in 19 W/m2
16:19 39.4 °F 38.5 °F 30.3 in WNW 0.6 mph 4 mph 96% 0 in 18 W/m2
16:24 39.4 °F 38.3 °F 30.4 in WNW 1.9 mph 4 mph 95.7% 0 in 16 W/m2
16:29 39.4 °F 38.3 °F 30.4 in NW 1.6 mph 4 mph 95.8% 0 in 11 W/m2
16:34 39.4 °F 38.3 °F 30.3 in NW 0.7 mph 3 mph 95.4% 0 in 11 W/m2
16:39 39.4 °F 38.1 °F 30.3 in WNW 1.2 mph 2.3 mph 95% 0 in 9 W/m2
16:44 39.4 °F 38.1 °F 30.3 in NW 0.8 mph 2.3 mph 95% 0 in 7 W/m2
16:49 39.4 °F 38.1 °F 30.3 in NW 0.1 mph 2 mph 95% 0 in 5 W/m2
16:54 39.6 °F 38.3 °F 30.3 in WNW 2 mph 4 mph 95% 0 in 0 W/m2
16:59 39.6 °F 38.1 °F 30.3 in WNW 2.8 mph 4 mph 95% 0 in 0 W/m2
17:04 39.6 °F 38.1 °F 30.4 in NNW 1.7 mph 4 mph 95% 0 in 0 W/m2
17:09 39.6 °F 38.3 °F 30.4 in North 0.9 mph 4 mph 95% 0 in 0 W/m2
17:14 39.6 °F 38.3 °F 30.4 in WNW 1.4 mph 3.5 mph 95% 0 in 0 W/m2
17:19 39.6 °F 38.3 °F 30.4 in WNW 2.2 mph 4 mph 95% 0 in 0 W/m2
17:24 39.6 °F 38.1 °F 30.3 in West 1.7 mph 4 mph 95% 0 in 0 W/m2
17:29 39.6 °F 38.1 °F 30.3 in WNW 1.5 mph 3 mph 95% 0 in 0 W/m2
17:34 39.4 °F 38.1 °F 30.3 in West 1.7 mph 3.5 mph 95% 0 in 0 W/m2
17:39 39.4 °F 38.1 °F 30.4 in WNW 1.7 mph 3.5 mph 95% 0 in 0 W/m2
17:44 39.4 °F 38.1 °F 30.4 in WNW 1.1 mph 3.5 mph 95% 0 in 0 W/m2
17:49 39.4 °F 38.1 °F 30.4 in NNW 1.2 mph 3.5 mph 95% 0 in 0 W/m2
17:54 39.4 °F 38.1 °F 30.4 in WNW 1.4 mph 3.5 mph 95% 0 in 0 W/m2
17:59 39.4 °F 38.1 °F 30.4 in West 1.5 mph 3.5 mph 95% 0 in 0 W/m2
18:04 39.4 °F 38.1 °F 30.3 in West 1.7 mph 4 mph 95% 0 in 0 W/m2
18:09 39.4 °F 38.1 °F 30.4 in WNW 2.1 mph 4 mph 95% 0 in 0 W/m2
18:14 39.4 °F 37.9 °F 30.4 in WNW 1.5 mph 3.5 mph 95% 0 in 0 W/m2
18:19 39.4 °F 38.1 °F 30.4 in West 1.6 mph 3 mph 95.4% 0 in 0 W/m2
18:24 39.4 °F 38.3 °F 30.4 in WSW 1.2 mph 3 mph 96% 0 in 0 W/m2
18:29 39.2 °F 38.3 °F 30.4 in West 2.3 mph 3.5 mph 96% 0 in 0 W/m2
18:34 39.2 °F 38.3 °F 30.4 in West 2.1 mph 4 mph 96% 0 in 0 W/m2
18:39 39.2 °F 38.3 °F 30.4 in WNW 2 mph 4 mph 96% 0 in 0 W/m2
18:44 39.2 °F 38.3 °F 30.4 in WNW 1.6 mph 4 mph 96% 0 in 0 W/m2
18:49 39.2 °F 38.1 °F 30.4 in NW 1.7 mph 3.5 mph 95.7% 0 in 0 W/m2
18:54 39.2 °F 38.1 °F 30.4 in WNW 1.2 mph 3.5 mph 95.8% 0 in 0 W/m2
18:59 39.2 °F 38.1 °F 30.4 in WNW 1 mph 3 mph 95.5% 0 in 0 W/m2
19:04 39.2 °F 38.3 °F 30.4 in WNW 0.1 mph 2 mph 96% 0 in 0 W/m2
19:09 39.2 °F 38.1 °F 30.4 in NNW 2.1 mph 5 mph 96% 0 in 0 W/m2
19:14 39.2 °F 38.3 °F 30.4 in North 2.1 mph 5 mph 96% 0 in 0 W/m2
19:19 39.2 °F 38.3 °F 30.4 in NNW 1.4 mph 4 mph 96% 0 in 0 W/m2
19:24 39.2 °F 38.3 °F 30.4 in NNW 1.9 mph 4 mph 96% 0 in 0 W/m2
19:29 39.2 °F 38.1 °F 30.4 in NNW 0.8 mph 3 mph 96% 0 in 0 W/m2
19:34 39.2 °F 38.1 °F 30.4 in NW 0.4 mph 2.3 mph 96% 0 in 0 W/m2
19:39 39.2 °F 38.1 °F 30.4 in NW 0.6 mph 2.3 mph 96% 0 in 0 W/m2
19:44 39 °F 38.1 °F 30.4 in NW 0.1 mph 2 mph 96% 0 in 0 W/m2
19:49 39 °F 38.1 °F 30.4 in Calm   1 mph 96% 0 in 0 W/m2
19:54 39.2 °F 38.1 °F 30.4 in NW 0.4 mph 2.3 mph 96% 0 in 0 W/m2
19:59 39.2 °F 38.1 °F 30.4 in NW 0.2 mph 2 mph 96% 0 in 0 W/m2
20:04 39.2 °F 38.1 °F 30.4 in North 1.1 mph 3.5 mph 96% 0 in 0 W/m2
20:09 39.2 °F 38.3 °F 30.4 in North 0.9 mph 3.5 mph 96.7% 0 in 0 W/m2
20:14 39 °F 38.3 °F 30.4 in NNW 0.9 mph 3.5 mph 97% 0 in 0 W/m2
20:19 39 °F 38.3 °F 30.4 in NNW 1.7 mph 3.5 mph 97% 0 in 0 W/m2
20:24 39 °F 38.3 °F 30.4 in NNW 1.2 mph 3.5 mph 97% 0 in 0 W/m2
20:29 39 °F 38.1 °F 30.4 in NNW 1.3 mph 3.5 mph 97% 0 in 0 W/m2
20:34 39 °F 38.1 °F 30.4 in NW 1.4 mph 3.5 mph 97% 0 in 0 W/m2
20:39 39 °F 38.1 °F 30.4 in NNW 0.9 mph 3 mph 97% 0 in 0 W/m2
20:44 39 °F 38.1 °F 30.4 in NNW 0.8 mph 2.3 mph 97% 0 in 0 W/m2
20:49 39 °F 38.1 °F 30.4 in NNW 0.2 mph 2 mph 97% 0 in 0 W/m2
20:54 39 °F 38.1 °F 30.4 in WNW 0.7 mph 2.3 mph 97% 0 in 0 W/m2
20:59 38.8 °F 38.1 °F 30.4 in West 1.4 mph 3.5 mph 97% 0 in 0 W/m2
21:04 38.8 °F 38.1 °F 30.4 in West 0.2 mph 3 mph 97% 0 in 0 W/m2
21:09 38.8 °F 38.1 °F 30.4 in West 0.1 mph 2 mph 97% 0 in 0 W/m2
21:14 38.8 °F 38.1 °F 30.4 in WNW 1.1 mph 3.5 mph 97% 0 in 0 W/m2
21:19 38.8 °F 38.1 °F 30.4 in WNW 1.5 mph 3.5 mph 97% 0 in 0 W/m2
21:24 38.8 °F 38.1 °F 30.4 in WNW 2.4 mph 4 mph 97% 0 in 0 W/m2
21:29 38.8 °F 37.9 °F 30.4 in WNW 2.1 mph 4 mph 97% 0 in 0 W/m2
21:34 38.8 °F 37.9 °F 30.4 in NW 2 mph 4 mph 97% 0 in 0 W/m2
21:39 38.8 °F 38.1 °F 30.4 in WNW 2.1 mph 5 mph 97.5% 0 in 0 W/m2
21:44 38.7 °F 38.1 °F 30.4 in WNW 2.3 mph 5 mph 98% 0 in 0 W/m2
21:49 38.7 °F 38.1 °F 30.4 in WNW 3.2 mph 7 mph 98% 0 in 0 W/m2
21:54 38.7 °F 37.9 °F 30.4 in WNW 4 mph 7 mph 97.2% 0 in 0 W/m2
21:59 38.7 °F 37.9 °F 30.4 in WNW 3.4 mph 6 mph 97% 0 in 0 W/m2
22:04 38.7 °F 37.9 °F 30.4 in NW 3 mph 5 mph 97% 0 in 0 W/m2
22:09 38.7 °F 37.9 °F 30.4 in NW 2.6 mph 5 mph 97% 0 in 0 W/m2
22:14 38.7 °F 37.9 °F 30.4 in WNW 2.1 mph 5 mph 97% 0 in 0 W/m2
22:19 38.7 °F 37.9 °F 30.4 in WNW 2.9 mph 5 mph 97% 0 in 0 W/m2
22:24 38.7 °F 37.9 °F 30.4 in WNW 3.4 mph 6 mph 97% 0 in 0 W/m2
22:29 38.7 °F 37.8 °F 30.4 in WNW 2.6 mph 6 mph 97% 0 in 0 W/m2
22:34 38.5 °F 37.8 °F 30.4 in WNW 2.9 mph 5 mph 97% 0 in 0 W/m2
22:39 38.5 °F 37.6 °F 30.4 in WNW 2.5 mph 5 mph 97% 0 in 0 W/m2
22:44 38.3 °F 37.6 °F 30.4 in WNW 2.5 mph 5 mph 97% 0 in 0 W/m2
22:49 38.3 °F 37.6 °F 30.4 in NW 1.7 mph 4 mph 97% 0 in 0 W/m2
22:54 38.3 °F 37.6 °F 30.4 in NW 1.9 mph 4 mph 97% 0 in 0 W/m2
22:59 38.3 °F 37.6 °F 30.4 in WNW 2 mph 4 mph 97% 0 in 0 W/m2
23:04 38.3 °F 37.6 °F 30.4 in WNW 2.8 mph 5 mph 97% 0 in 0 W/m2
23:09 38.3 °F 37.4 °F 30.4 in WNW 3.2 mph 5.8 mph 97% 0 in 0 W/m2
23:14 38.1 °F 37.2 °F 30.4 in WNW 3.8 mph 6 mph 97% 0 in 0 W/m2
23:19 37.9 °F 37.2 °F 30.4 in WNW 3.8 mph 5 mph 97% 0 in 0 W/m2
23:24 37.9 °F 37.4 °F 30.4 in WNW 3.4 mph 5 mph 97.7% 0 in 0 W/m2
23:29 37.9 °F 37.6 °F 30.4 in WNW 3.6 mph 6 mph 98% 0 in 0 W/m2
23:34 37.9 °F 37.4 °F 30.4 in WNW 3.8 mph 6 mph 98% 0 in 0 W/m2
23:39 37.8 °F 37 °F 30.4 in WNW 2.9 mph 5 mph 97.4% 0 in 0 W/m2
23:44 37.8 °F 37 °F 30.4 in NW 2.5 mph 5 mph 97.2% 0 in 0 W/m2
23:49 37.8 °F 37 °F 30.4 in NW 1.7 mph 4 mph 97.2% 0 in 0 W/m2
23:54 37.8 °F 37.2 °F 30.4 in NNW 2.2 mph 3.5 mph 97.6% 0 in 0 W/m2
23:59 37.8 °F 37 °F 30.4 in NW 1.7 mph 4 mph 97% 0 in 0 W/m2
Stazione Meteorologica MeteoMincio Rivalta s/M (MN)
Con i complimenti di Weather Underground - 4 mb


METEO PILLOLE
La più intensa nevicata in 24 ore
Silver Lake - Colorado
Tra il 14 e il 15 aprile 1921 caddero 193 cm di neve
C'è anche un altro dato, ma non è ufficiale, a Roccacaramanico (1050m) in Abruzzo - Italia, Il 17 dicembre 1961 caddero 340 cm di neve.

Do NOT follow this link or you will be banned from the site!